Tracking 22881 objects as of 19-Apr-2021
HD Live streaming from Space Station
objects crossing your sky now

CLUSTER II-FM6

Track CLUSTER II-FM6 now!
CLUSTER II-FM6 is classified as:


NORAD ID: 26410
Int'l Code: 2000-041A
Perigee: 31,334.7 km
Apogee: 101,504.5 km
Inclination: 132.6 °
Period: 3,257.4 minutes
Semi major axis: 72790 km
RCS: 1.9953 m2 (large)
Launch date: July 16, 2000
Source: European Space Agency (ESA)
Launch site: TYURATAM MISSILE AND SPACE COMPLEX (TTMTR)
aabbcc
Your satellite tracking list
Your tracking list is empty




NASA's NSSDC Master Catalog

Two Line Element Set (TLE):
1 26410U 00041A   21110.94112993  .00000242  00000-0  00000-0 0  9999
2 26410 132.6206 344.0399 4819977 190.7842   0.6374  0.44206919 11943
Source of the keplerian elements: AFSPC